Location: Forst
(46.9333°N, 15.4333°E)
Time: 20:43:47
(UTC+00:00)

Cosmos 1328 Rocket - Pass Details

Date: 01 December 2020
Orbit: 601 x 627 km, 82.5° (Epoch: 27 January)

Event Time Altitude Azimuth Distance (km) Brightness Sun altitude
Rises 15:56:40 0° 167° (SSE) 2,844 7.1 -7.7°
Reaches altitude 10° 15:58:58 10° 159° (SSE) 1,948 6.2 -8.0°
Maximum altitude 16:02:57 38° 92° (E) 938 4.1 -8.7°
Drops below altitude 10° 16:07:00 10° 24° (NNE) 1,977 5.7 -9.3°
Sets 16:09:20 0° 17° (NNE) 2,891 6.6 -9.7°
Enters shadow 16:09:23 - 17° (NNE) 2,910 6.6 -9.7°
